Wetterdaten: Montag, 30.05.2016
Datum Zeit Auen-Temp. Temp gefhlt Luftfeuchte Luftdruck Regen Wind Richtung Richtung Sonnenschein Taupunkt Windben
30.05.2016 00:00 11,7 C 11,4 C 85 % 1008,4 hPa 0,0 mm 0,0 km/h (0 Bft) S 180 0 min 9,3 C 0,0 km/h (0 Bft)
30.05.2016 00:05 11,7 C 11,4 C 85 % 1008,4 hPa 0,0 mm 0,0 km/h (0 Bft) S-SO 157 0 min 9,3 C 0,0 km/h (0 Bft)
30.05.2016 00:10 11,7 C 11,4 C 85 % 1008,2 hPa 0,0 mm 0,0 km/h (0 Bft) S 180 0 min 9,3 C 0,0 km/h (0 Bft)
30.05.2016 00:15 11,7 C 11,4 C 85 % 1008,2 hPa 0,0 mm 0,0 km/h (0 Bft) S 180 0 min 9,3 C 0,0 km/h (0 Bft)
30.05.2016 00:20 11,6 C 11,4 C 85 % 1008,2 hPa 0,7 mm 0,0 km/h (0 Bft) S 180 0 min 9,2 C 0,0 km/h (0 Bft)
30.05.2016 00:25 11,6 C 11,4 C 85 % 1008,2 hPa 0,0 mm 0,3 km/h (0 Bft) SW 225 0 min 9,2 C 0,0 km/h (0 Bft)
30.05.2016 00:28 11,6 C 11,3 C 85 % 1008,3 hPa 0,0 mm 0,3 km/h (0 Bft) S-SO 157 0 min 9,2 C 0,0 km/h (0 Bft)
30.05.2016 00:30 11,6 C 11,3 C 85 % 1008,3 hPa 0,0 mm 0,3 km/h (0 Bft) S-SO 157 0 min 9,2 C 0,0 km/h (0 Bft)
30.05.2016 00:35 11,6 C 11,3 C 85 % 1008,3 hPa 0,0 mm 0,3 km/h (0 Bft) S 180 0 min 9,2 C 0,0 km/h (0 Bft)
30.05.2016 00:40 11,6 C 11,4 C 86 % 1008,3 hPa 0,0 mm 0,3 km/h (0 Bft) SO 135 0 min 9,3 C 0,0 km/h (0 Bft)
30.05.2016 00:45 11,6 C 11,4 C 86 % 1008,3 hPa 0,0 mm 0,0 km/h (0 Bft) S-SW 202 0 min 9,3 C 0,0 km/h (0 Bft)
30.05.2016 00:50 11,5 C 11,3 C 86 % 1008,0 hPa 0,0 mm 0,0 km/h (0 Bft) S-SO 157 0 min 9,2 C 0,0 km/h (0 Bft)
30.05.2016 00:55 11,5 C 11,3 C 86 % 1008,0 hPa 0,0 mm 0,0 km/h (0 Bft) S 180 0 min 9,2 C 0,0 km/h (0 Bft)
30.05.2016 01:00 11,5 C 11,3 C 86 % 1008,0 hPa 0,0 mm 0,0 km/h (0 Bft) S 180 0 min 9,2 C 0,0 km/h (0 Bft)
30.05.2016 01:05 11,4 C 11,3 C 86 % 1008,0 hPa 0,0 mm 0,0 km/h (0 Bft) SW 225 0 min 9,1 C 0,0 km/h (0 Bft)
30.05.2016 01:10 11,4 C 11,3 C 86 % 1008,4 hPa 0,0 mm 0,0 km/h (0 Bft) S-SW 202 0 min 9,1 C 0,0 km/h (0 Bft)
30.05.2016 01:15 11,4 C 11,3 C 86 % 1008,4 hPa 0,0 mm 0,0 km/h (0 Bft) SW 225 0 min 9,1 C 0,0 km/h (0 Bft)
30.05.2016 01:20 11,4 C 11,2 C 86 % 1008,4 hPa 0,0 mm 0,0 km/h (0 Bft) W-SW 247 0 min 9,1 C 0,0 km/h (0 Bft)
30.05.2016 01:25 11,3 C 11,1 C 86 % 1008,4 hPa 0,0 mm 0,0 km/h (0 Bft) S-SW 202 0 min 9,0 C 0,0 km/h (0 Bft)
30.05.2016 01:30 11,3 C 11,1 C 86 % 1008,2 hPa 0,0 mm 0,0 km/h (0 Bft) S-SW 202 0 min 9,0 C 0,0 km/h (0 Bft)
30.05.2016 01:35 11,3 C 11,1 C 86 % 1008,2 hPa 0,0 mm 0,0 km/h (0 Bft) S 180 0 min 9,0 C 0,0 km/h (0 Bft)
30.05.2016 01:40 11,2 C 11,1 C 86 % 1008,2 hPa 0,0 mm 1,2 km/h (1 Bft) SO 135 0 min 8,9 C 11,0 km/h (2 Bft)
30.05.2016 01:45 11,2 C 11,1 C 86 % 1008,2 hPa 0,0 mm 1,2 km/h (1 Bft) SW 225 0 min 8,9 C 0,0 km/h (0 Bft)
30.05.2016 01:50 11,2 C 11,0 C 86 % 1008,1 hPa 0,0 mm 2,1 km/h (1 Bft) SW 225 0 min 8,9 C 0,0 km/h (0 Bft)
30.05.2016 01:55 11,1 C 11,0 C 86 % 1008,1 hPa 0,0 mm 2,1 km/h (1 Bft) S-SW 202 0 min 8,8 C 0,0 km/h (0 Bft)
30.05.2016 02:00 11,0 C 10,8 C 86 % 1008,1 hPa 0,0 mm 2,1 km/h (1 Bft) W-SW 247 0 min 8,7 C 5,1 km/h (1 Bft)
30.05.2016 02:05 11,0 C 10,7 C 86 % 1008,1 hPa 0,0 mm 3,0 km/h (1 Bft) S-SO 157 0 min 8,7 C 0,0 km/h (0 Bft)
30.05.2016 02:10 10,8 C 10,5 C 86 % 1007,7 hPa 0,0 mm 1,5 km/h (1 Bft) SW 225 0 min 8,6 C 0,0 km/h (0 Bft)
30.05.2016 02:15 10,6 C 10,3 C 86 % 1007,7 hPa 0,0 mm 0,3 km/h (0 Bft) SW 225 0 min 8,4 C 0,0 km/h (0 Bft)
30.05.2016 02:20 10,5 C 10,2 C 86 % 1007,7 hPa 0,0 mm 0,3 km/h (0 Bft) O-SO 112 0 min 8,3 C 0,0 km/h (0 Bft)
30.05.2016 02:25 10,5 C 10,1 C 86 % 1007,7 hPa 0,0 mm 0,0 km/h (0 Bft) S 180 0 min 8,3 C 0,0 km/h (0 Bft)
30.05.2016 02:30 10,3 C 10,0 C 86 % 1007,6 hPa 0,0 mm 0,0 km/h (0 Bft) O 90 0 min 8,1 C 0,0 km/h (0 Bft)
30.05.2016 02:35 10,3 C 10,0 C 86 % 1007,6 hPa 0,0 mm 0,0 km/h (0 Bft) SO 135 0 min 8,1 C 0,0 km/h (0 Bft)
30.05.2016 02:40 10,3 C 9,9 C 86 % 1007,6 hPa 0,0 mm 0,0 km/h (0 Bft) O-SO 112 0 min 8,1 C 0,0 km/h (0 Bft)
30.05.2016 02:45 10,2 C 9,8 C 86 % 1007,6 hPa 0,0 mm 0,0 km/h (0 Bft) SO 135 0 min 8,0 C 0,0 km/h (0 Bft)
30.05.2016 02:50 10,1 C 9,8 C 86 % 1007,6 hPa 0,0 mm 0,0 km/h (0 Bft) W 270 0 min 7,9 C 0,0 km/h (0 Bft)
30.05.2016 02:55 10,1 C 9,7 C 86 % 1007,6 hPa 0,0 mm 0,0 km/h (0 Bft) S 180 0 min 7,9 C 0,0 km/h (0 Bft)
30.05.2016 03:00 9,9 C 9,6 C 86 % 1007,6 hPa 0,0 mm 0,0 km/h (0 Bft) SO 135 0 min 7,7 C 0,0 km/h (0 Bft)
30.05.2016 03:05 9,9 C 9,6 C 86 % 1007,6 hPa 0,0 mm 0,0 km/h (0 Bft) S 180 0 min 7,7 C 0,0 km/h (0 Bft)
30.05.2016 03:10 9,8 C 9,4 C 86 % 1007,4 hPa 0,0 mm 0,0 km/h (0 Bft) SW 225 0 min 7,6 C 0,0 km/h (0 Bft)
30.05.2016 03:15 9,7 C 9,4 C 86 % 1007,4 hPa 0,0 mm 0,0 km/h (0 Bft) SW 225 0 min 7,5 C 0,0 km/h (0 Bft)
30.05.2016 03:20 9,7 C 9,4 C 86 % 1007,4 hPa 0,0 mm 0,0 km/h (0 Bft) S-SO 157 0 min 7,5 C 0,0 km/h (0 Bft)
30.05.2016 03:25 9,8 C 9,5 C 86 % 1007,4 hPa 0,0 mm 0,0 km/h (0 Bft) O-NO 67 0 min 7,6 C 0,0 km/h (0 Bft)
30.05.2016 03:28 9,7 C 9,4 C 86 % 1007,4 hPa 0,0 mm 0,0 km/h (0 Bft) O-NO 67 0 min 7,5 C 0,0 km/h (0 Bft)
30.05.2016 03:33 9,6 C 9,3 C 86 % 1007,4 hPa 0,0 mm 0,0 km/h (0 Bft) SO 135 0 min 7,4 C 0,0 km/h (0 Bft)
30.05.2016 03:38 9,4 C 9,1 C 86 % 1007,4 hPa 0,0 mm 0,0 km/h (0 Bft) W-SW 247 0 min 7,2 C 0,0 km/h (0 Bft)
30.05.2016 03:43 9,5 C 9,2 C 86 % 1007,4 hPa 0,0 mm 0,9 km/h (0 Bft) SW 225 0 min 7,3 C 9,8 km/h (2 Bft)
30.05.2016 03:48 9,7 C 9,6 C 87 % 1007,4 hPa 0,0 mm 1,5 km/h (1 Bft) O-SO 112 0 min 7,6 C 0,0 km/h (0 Bft)
30.05.2016 03:53 9,7 C 9,6 C 87 % 1007,4 hPa 0,0 mm 1,5 km/h (1 Bft) SO 135 0 min 7,6 C 0,0 km/h (0 Bft)
30.05.2016 03:58 9,6 C 9,4 C 87 % 1007,4 hPa 0,0 mm 0,0 km/h (0 Bft) O-SO 112 0 min 7,5 C 0,0 km/h (0 Bft)
30.05.2016 04:03 9,6 C 9,4 C 87 % 1007,4 hPa 0,0 mm 0,0 km/h (0 Bft) O-NO 67 0 min 7,5 C 0,0 km/h (0 Bft)
30.05.2016 04:08 9,5 C 9,5 C 87 % 1007,4 hPa 0,0 mm 0,0 km/h (0 Bft) NO 45 0 min 7,4 C 0,0 km/h (0 Bft)
30.05.2016 04:13 9,5 C 9,5 C 87 % 1007,4 hPa 0,0 mm 0,0 km/h (0 Bft) W-NW 292 0 min 7,4 C 0,0 km/h (0 Bft)
30.05.2016 04:18 9,6 C 9,5 C 87 % 1007,4 hPa 0,0 mm 0,0 km/h (0 Bft) O-NO 67 0 min 7,5 C 0,0 km/h (0 Bft)
30.05.2016 04:23 9,6 C 9,6 C 87 % 1007,4 hPa 0,0 mm 0,0 km/h (0 Bft) W 270 0 min 7,5 C 0,0 km/h (0 Bft)
30.05.2016 04:28 9,7 C 9,7 C 87 % 1007,7 hPa 0,0 mm 0,0 km/h (0 Bft) SW 225 0 min 7,6 C 0,0 km/h (0 Bft)
30.05.2016 04:33 9,8 C 9,8 C 87 % 1007,7 hPa 0,0 mm 0,9 km/h (0 Bft) O-SO 112 0 min 7,7 C 3,0 km/h (1 Bft)
30.05.2016 04:38 9,9 C 9,9 C 87 % 1007,7 hPa 0,0 mm 1,2 km/h (1 Bft) N-NO 22 0 min 7,8 C 0,0 km/h (0 Bft)
30.05.2016 04:43 10,0 C 10,0 C 87 % 1007,7 hPa 0,0 mm 0,9 km/h (0 Bft) S-SW 202 0 min 7,9 C 0,0 km/h (0 Bft)
30.05.2016 04:48 10,0 C 10,0 C 87 % 1007,6 hPa 0,0 mm 1,2 km/h (1 Bft) SW 225 0 min 7,9 C 0,0 km/h (0 Bft)
30.05.2016 04:53 10,0 C 10,0 C 87 % 1007,6 hPa 0,0 mm 1,2 km/h (1 Bft) W-SW 247 0 min 7,9 C 0,0 km/h (0 Bft)
30.05.2016 04:58 10,0 C 10,0 C 87 % 1007,6 hPa 0,0 mm 2,1 km/h (1 Bft) S 180 0 min 7,9 C 7,2 km/h (2 Bft)
30.05.2016 05:03 10,0 C 10,0 C 87 % 1007,6 hPa 0,0 mm 2,4 km/h (1 Bft) S-SO 157 0 min 7,9 C 0,0 km/h (0 Bft)
30.05.2016 05:08 10,0 C 10,0 C 87 % 1007,8 hPa 0,0 mm 1,5 km/h (1 Bft) SW 225 0 min 7,9 C 6,6 km/h (2 Bft)
30.05.2016 05:13 10,0 C 10,0 C 87 % 1007,8 hPa 0,0 mm 0,9 km/h (0 Bft) S-SW 202 0 min 7,9 C 5,7 km/h (1 Bft)
30.05.2016 05:18 10,0 C 10,0 C 87 % 1007,8 hPa 0,0 mm 2,7 km/h (1 Bft) S 180 0 min 7,9 C 0,0 km/h (0 Bft)
30.05.2016 05:23 10,1 C 10,0 C 87 % 1007,8 hPa 0,0 mm 2,7 km/h (1 Bft) O-NO 67 0 min 8,0 C 9,5 km/h (2 Bft)
30.05.2016 05:28 10,1 C 10,0 C 87 % 1007,9 hPa 0,0 mm 1,8 km/h (1 Bft) SW 225 0 min 8,0 C 9,2 km/h (2 Bft)
30.05.2016 05:33 10,1 C 10,1 C 87 % 1007,9 hPa 0,0 mm 3,6 km/h (1 Bft) W-SW 247 0 min 8,0 C 0,0 km/h (0 Bft)
30.05.2016 05:38 10,1 C 10,1 C 87 % 1007,9 hPa 0,0 mm 3,9 km/h (1 Bft) SW 225 0 min 8,0 C 7,7 km/h (2 Bft)
30.05.2016 05:43 10,1 C 10,1 C 87 % 1007,9 hPa 0,0 mm 3,6 km/h (1 Bft) SO 135 0 min 8,0 C 3,3 km/h (1 Bft)
30.05.2016 05:48 10,2 C 10,1 C 87 % 1007,8 hPa 0,0 mm 2,7 km/h (1 Bft) S-SO 157 0 min 8,1 C 0,0 km/h (0 Bft)
30.05.2016 05:53 10,2 C 10,1 C 87 % 1007,8 hPa 0,0 mm 0,6 km/h (0 Bft) O-SO 112 0 min 8,1 C 0,0 km/h (0 Bft)
30.05.2016 05:58 10,2 C 10,1 C 87 % 1007,8 hPa 0,0 mm 0,0 km/h (0 Bft) N-NO 22 0 min 8,1 C 0,0 km/h (0 Bft)
30.05.2016 06:03 10,2 C 10,1 C 87 % 1007,8 hPa 0,0 mm 0,0 km/h (0 Bft) O 90 0 min 8,1 C 0,0 km/h (0 Bft)
30.05.2016 06:08 10,3 C 10,2 C 87 % 1008,1 hPa 0,0 mm 0,0 km/h (0 Bft) NW 315 0 min 8,2 C 0,0 km/h (0 Bft)
30.05.2016 06:13 10,3 C 10,2 C 87 % 1008,1 hPa 0,0 mm 0,0 km/h (0 Bft) S-SO 157 0 min 8,2 C 0,0 km/h (0 Bft)
30.05.2016 06:18 10,3 C 10,3 C 87 % 1008,1 hPa 0,0 mm 0,0 km/h (0 Bft) W-SW 247 0 min 8,2 C 0,0 km/h (0 Bft)
30.05.2016 06:23 10,3 C 10,4 C 87 % 1008,1 hPa 0,0 mm 0,0 km/h (0 Bft) S-SO 157 0 min 8,2 C 0,0 km/h (0 Bft)
30.05.2016 06:28 10,5 C 10,5 C 87 % 1008,1 hPa 0,0 mm 2,4 km/h (1 Bft) SW 225 0 min 8,4 C 8,9 km/h (2 Bft)
30.05.2016 06:33 10,5 C 10,6 C 87 % 1008,1 hPa 0,0 mm 2,7 km/h (1 Bft) SW 225 0 min 8,4 C 0,0 km/h (0 Bft)
30.05.2016 06:38 10,6 C 10,8 C 87 % 1008,1 hPa 0,0 mm 1,2 km/h (1 Bft) SW 225 0 min 8,5 C 0,0 km/h (0 Bft)
30.05.2016 06:43 10,8 C 10,9 C 87 % 1008,1 hPa 0,0 mm 0,0 km/h (0 Bft) W-SW 247 0 min 8,7 C 0,0 km/h (0 Bft)
30.05.2016 06:48 10,9 C 11,0 C 87 % 1008,4 hPa 0,0 mm 0,0 km/h (0 Bft) W-SW 247 0 min 8,8 C 0,0 km/h (0 Bft)
30.05.2016 06:53 10,9 C 11,0 C 87 % 1008,4 hPa 0,0 mm 0,9 km/h (0 Bft) W-SW 247 0 min 8,8 C 4,8 km/h (1 Bft)
30.05.2016 06:58 11,0 C 11,1 C 87 % 1008,4 hPa 0,0 mm 3,3 km/h (1 Bft) S-SW 202 0 min 8,9 C 9,5 km/h (2 Bft)
30.05.2016 07:03 11,1 C 11,2 C 87 % 1008,4 hPa 0,0 mm 2,7 km/h (1 Bft) SW 225 0 min 9,0 C 0,0 km/h (0 Bft)
30.05.2016 07:08 11,1 C 11,3 C 87 % 1008,4 hPa 0,0 mm 3,9 km/h (1 Bft) S 180 0 min 9,0 C 7,5 km/h (2 Bft)
30.05.2016 07:13 11,2 C 11,4 C 87 % 1008,4 hPa 0,0 mm 3,9 km/h (1 Bft) S 180 0 min 9,1 C 0,0 km/h (0 Bft)
30.05.2016 07:18 11,2 C 11,5 C 87 % 1008,4 hPa 0,0 mm 3,0 km/h (1 Bft) SW 225 0 min 9,1 C 4,8 km/h (1 Bft)
30.05.2016 07:23 11,3 C 11,6 C 87 % 1008,4 hPa 0,0 mm 2,1 km/h (1 Bft) W-NW 292 0 min 9,2 C 0,0 km/h (0 Bft)
30.05.2016 07:28 11,4 C 11,8 C 86 % 1008,4 hPa 0,0 mm 1,8 km/h (1 Bft) S 180 0 min 9,1 C 6,6 km/h (2 Bft)
30.05.2016 07:33 11,5 C 11,9 C 86 % 1008,4 hPa 0,0 mm 1,2 km/h (1 Bft) W-SW 247 0 min 9,2 C 0,0 km/h (0 Bft)
30.05.2016 07:38 11,7 C 12,2 C 86 % 1008,4 hPa 0,0 mm 1,2 km/h (1 Bft) W-NW 292 0 min 9,4 C 0,0 km/h (0 Bft)
30.05.2016 07:43 11,8 C 12,4 C 86 % 1008,4 hPa 0,0 mm 0,3 km/h (0 Bft) NW 315 0 min 9,5 C 0,0 km/h (0 Bft)
30.05.2016 07:48 12,0 C 12,6 C 86 % 1008,4 hPa 0,0 mm 0,9 km/h (0 Bft) W-SW 247 0 min 9,7 C 0,0 km/h (0 Bft)
30.05.2016 07:53 12,1 C 12,7 C 86 % 1008,4 hPa 0,0 mm 0,6 km/h (0 Bft) S-SW 202 0 min 9,8 C 0,0 km/h (0 Bft)
30.05.2016 07:58 12,2 C 13,1 C 85 % 1008,4 hPa 0,0 mm 0,3 km/h (0 Bft) NW 315 0 min 9,8 C 0,0 km/h (0 Bft)
30.05.2016 08:03 12,3 C 13,3 C 85 % 1008,4 hPa 0,0 mm 0,3 km/h (0 Bft) S 180 0 min 9,9 C 10,4 km/h (2 Bft)
30.05.2016 08:08 12,4 C 13,6 C 85 % 1008,4 hPa 0,0 mm 0,6 km/h (0 Bft) N-NW 337 0 min 9,9 C 0,0 km/h (0 Bft)
30.05.2016 08:13 12,5 C 13,7 C 85 % 1008,4 hPa 0,0 mm 1,8 km/h (1 Bft) W-SW 247 0 min 10,0 C 6,9 km/h (2 Bft)
30.05.2016 08:18 12,7 C 13,9 C 85 % 1008,4 hPa 0,0 mm 1,8 km/h (1 Bft) S 180 0 min 10,2 C 0,0 km/h (0 Bft)
30.05.2016 08:23 12,8 C 14,3 C 85 % 1008,4 hPa 0,0 mm 1,2 km/h (1 Bft) N 360 0 min 10,3 C 0,0 km/h (0 Bft)
30.05.2016 08:28 13,1 C 14,8 C 84 % 1008,5 hPa 0,0 mm 0,6 km/h (0 Bft) W 270 0 min 10,5 C 0,0 km/h (0 Bft)
30.05.2016 08:33 13,3 C 15,3 C 83 % 1008,5 hPa 0,0 mm 0,6 km/h (0 Bft) NW 315 0 min 10,5 C 0,0 km/h (0 Bft)
30.05.2016 08:38 13,6 C 16,0 C 83 % 1008,5 hPa 0,0 mm 1,5 km/h (1 Bft) W-NW 292 0 min 10,8 C 5,7 km/h (1 Bft)
30.05.2016 08:43 13,7 C 16,3 C 83 % 1008,5 hPa 0,0 mm 2,7 km/h (1 Bft) N-NW 337 0 min 10,9 C 0,0 km/h (0 Bft)
30.05.2016 08:48 14,5 C 18,0 C 82 % 1008,8 hPa 0,0 mm 5,4 km/h (1 Bft) W 270 5 min 11,5 C 11,6 km/h (2 Bft)
30.05.2016 08:53 14,5 C 18,5 C 82 % 1008,8 hPa 0,0 mm 6,6 km/h (2 Bft) W-SW 247 5 min 11,5 C 13,7 km/h (3 Bft)
30.05.2016 08:58 14,1 C 17,6 C 81 % 1008,8 hPa 0,0 mm 5,7 km/h (1 Bft) W 270 5 min 10,9 C 0,0 km/h (0 Bft)
30.05.2016 09:03 14,1 C 17,4 C 80 % 1008,8 hPa 0,0 mm 4,2 km/h (1 Bft) W-SW 247 5 min 10,7 C 11,0 km/h (2 Bft)
30.05.2016 09:08 14,6 C 18,0 C 80 % 1008,8 hPa 0,0 mm 4,2 km/h (1 Bft) NW 315 5 min 11,2 C 10,7 km/h (2 Bft)
30.05.2016 09:13 15,1 C 19,0 C 79 % 1008,8 hPa 0,0 mm 6,0 km/h (2 Bft) W-SW 247 5 min 11,5 C 9,5 km/h (2 Bft)
30.05.2016 09:18 16,1 C 21,7 C 78 % 1008,8 hPa 0,0 mm 6,9 km/h (2 Bft) W-NW 292 5 min 12,3 C 17,6 km/h (3 Bft)
30.05.2016 09:23 15,5 C 21,2 C 77 % 1008,8 hPa 0,0 mm 7,5 km/h (2 Bft) W 270 5 min 11,5 C 6,9 km/h (2 Bft)
30.05.2016 09:28 15,3 C 20,0 C 77 % 1008,8 hPa 0,0 mm 7,7 km/h (2 Bft) W-SW 247 5 min 11,3 C 5,7 km/h (1 Bft)
30.05.2016 09:33 15,5 C 20,0 C 76 % 1008,8 hPa 0,0 mm 6,0 km/h (2 Bft) S 180 5 min 11,3 C 13,1 km/h (3 Bft)
30.05.2016 09:38 15,7 C 20,0 C 76 % 1008,8 hPa 0,0 mm 5,4 km/h (1 Bft) W 270 5 min 11,5 C 6,9 km/h (2 Bft)
30.05.2016 09:43 15,9 C 19,9 C 76 % 1008,8 hPa 0,0 mm 5,4 km/h (1 Bft) W-SW 247 5 min 11,7 C 11,0 km/h (2 Bft)
30.05.2016 09:48 16,1 C 20,7 C 74 % 1009,1 hPa 0,0 mm 5,1 km/h (1 Bft) N-NO 22 5 min 11,5 C 4,5 km/h (1 Bft)
30.05.2016 09:49 16,1 C 20,7 C 74 % 1009,1 hPa 0,0 mm 5,1 km/h (1 Bft) N-NO 22 1 min 11,5 C 4,5 km/h (1 Bft)
30.05.2016 09:55 16,1 C 20,6 C 73 % 1009,1 hPa 0,0 mm 6,6 km/h (2 Bft) W-NW 292 5 min 11,3 C 8,6 km/h (2 Bft)
30.05.2016 10:00 16,1 C 20,4 C 72 % 1009,1 hPa 0,0 mm 8,0 km/h (2 Bft) S 180 5 min 11,0 C 9,8 km/h (2 Bft)
30.05.2016 10:05 16,1 C 20,4 C 71 % 1009,1 hPa 0,0 mm 7,5 km/h (2 Bft) W 270 5 min 10,8 C 10,7 km/h (2 Bft)
30.05.2016 10:10 16,2 C 20,4 C 71 % 1009,3 hPa 0,0 mm 6,6 km/h (2 Bft) N-NO 22 5 min 10,9 C 12,2 km/h (2 Bft)
30.05.2016 10:15 16,2 C 20,2 C 70 % 1009,3 hPa 0,0 mm 7,5 km/h (2 Bft) O-SO 112 5 min 10,7 C 3,9 km/h (1 Bft)
30.05.2016 10:20 16,3 C 20,0 C 70 % 1009,3 hPa 0,0 mm 7,2 km/h (2 Bft) W 270 5 min 10,8 C 6,9 km/h (2 Bft)
30.05.2016 10:25 16,2 C 20,0 C 70 % 1009,3 hPa 0,0 mm 7,5 km/h (2 Bft) W-NW 292 5 min 10,7 C 9,2 km/h (2 Bft)
30.05.2016 10:30 16,5 C 20,3 C 70 % 1009,4 hPa 0,0 mm 6,3 km/h (2 Bft) NW 315 5 min 11,0 C 6,9 km/h (2 Bft)
30.05.2016 10:35 16,5 C 20,5 C 70 % 1009,4 hPa 0,0 mm 6,3 km/h (2 Bft) NW 315 5 min 11,0 C 10,1 km/h (2 Bft)
30.05.2016 10:40 16,1 C 19,6 C 69 % 1009,4 hPa 0,0 mm 8,6 km/h (2 Bft) W 270 5 min 10,4 C 25,6 km/h (4 Bft)
30.05.2016 10:45 15,9 C 19,2 C 70 % 1009,4 hPa 0,0 mm 8,3 km/h (2 Bft) W 270 5 min 10,4 C 17,9 km/h (3 Bft)
30.05.2016 10:50 15,6 C 18,2 C 70 % 1009,4 hPa 0,0 mm 8,9 km/h (2 Bft) W 270 0 min 10,1 C 27,1 km/h (4 Bft)
30.05.2016 10:55 15,6 C 17,9 C 70 % 1009,4 hPa 0,0 mm 11,9 km/h (2 Bft) W-NW 292 0 min 10,1 C 16,7 km/h (3 Bft)
30.05.2016 11:00 15,8 C 18,1 C 71 % 1009,4 hPa 0,0 mm 10,4 km/h (2 Bft) W-SW 247 0 min 10,6 C 6,0 km/h (2 Bft)
30.05.2016 11:05 16,0 C 18,4 C 70 % 1009,4 hPa 0,0 mm 8,0 km/h (2 Bft) NW 315 0 min 10,5 C 11,6 km/h (2 Bft)
30.05.2016 11:10 16,2 C 19,0 C 70 % 1009,4 hPa 0,0 mm 6,0 km/h (2 Bft) S-SW 202 0 min 10,7 C 3,3 km/h (1 Bft)
30.05.2016 11:15 16,6 C 19,6 C 70 % 1009,4 hPa 0,0 mm 6,0 km/h (2 Bft) W-SW 247 0 min 11,1 C 13,1 km/h (3 Bft)
30.05.2016 11:20 17,1 C 20,7 C 69 % 1009,4 hPa 0,0 mm 7,2 km/h (2 Bft) W-SW 247 0 min 11,4 C 4,5 km/h (1 Bft)
30.05.2016 11:25 17,2 C 21,5 C 69 % 1009,4 hPa 0,0 mm 8,9 km/h (2 Bft) W-NW 292 5 min 11,5 C 14,9 km/h (3 Bft)
30.05.2016 11:30 17,8 C 22,0 C 69 % 1009,4 hPa 0,0 mm 8,9 km/h (2 Bft) W-SW 247 5 min 12,0 C 15,8 km/h (3 Bft)
30.05.2016 11:35 18,4 C 22,8 C 69 % 1009,4 hPa 0,0 mm 9,8 km/h (2 Bft) NW 315 5 min 12,6 C 14,9 km/h (3 Bft)
30.05.2016 11:40 18,8 C 24,1 C 68 % 1009,4 hPa 0,0 mm 9,2 km/h (2 Bft) W-NW 292 5 min 12,8 C 10,1 km/h (2 Bft)
30.05.2016 11:45 18,6 C 24,4 C 66 % 1009,4 hPa 0,0 mm 9,5 km/h (2 Bft) W 270 5 min 12,1 C 10,1 km/h (2 Bft)
30.05.2016 11:50 18,4 C 23,8 C 66 % 1009,9 hPa 0,0 mm 10,7 km/h (2 Bft) NW 315 5 min 11,9 C 11,3 km/h (2 Bft)
30.05.2016 11:55 18,7 C 23,9 C 66 % 1009,9 hPa 0,0 mm 11,0 km/h (2 Bft) S-SW 202 5 min 12,2 C 14,3 km/h (3 Bft)
30.05.2016 12:00 18,6 C 23,5 C 65 % 1009,9 hPa 0,0 mm 12,8 km/h (3 Bft) W 270 5 min 11,9 C 31,0 km/h (5 Bft)
30.05.2016 12:05 18,7 C 23,6 C 65 % 1009,9 hPa 0,0 mm 12,5 km/h (3 Bft) W 270 5 min 12,0 C 17,0 km/h (3 Bft)
30.05.2016 12:10 18,8 C 23,5 C 64 % 1010,2 hPa 0,0 mm 10,7 km/h (2 Bft) NW 315 5 min 11,8 C 14,3 km/h (3 Bft)
30.05.2016 12:15 18,7 C 23,7 C 63 % 1010,2 hPa 0,0 mm 10,4 km/h (2 Bft) W-SW 247 5 min 11,5 C 7,2 km/h (2 Bft)
30.05.2016 12:20 18,5 C 23,3 C 60 % 1010,2 hPa 0,0 mm 10,1 km/h (2 Bft) S 180 5 min 10,6 C 39,0 km/h (6 Bft)
30.05.2016 12:25 18,6 C 23,2 C 60 % 1010,2 hPa 0,0 mm 8,9 km/h (2 Bft) W-NW 292 5 min 10,7 C 7,5 km/h (2 Bft)
30.05.2016 12:30 18,6 C 23,4 C 61 % 1010,3 hPa 0,0 mm 8,3 km/h (2 Bft) W 270 5 min 10,9 C 9,2 km/h (2 Bft)
30.05.2016 12:35 18,1 C 22,5 C 61 % 1010,3 hPa 0,0 mm 8,6 km/h (2 Bft) W 270 5 min 10,5 C 3,9 km/h (1 Bft)
30.05.2016 12:40 17,6 C 21,2 C 60 % 1010,3 hPa 0,0 mm 10,4 km/h (2 Bft) NW 315 5 min 9,7 C 17,9 km/h (3 Bft)
30.05.2016 12:45 17,4 C 20,5 C 60 % 1010,3 hPa 0,0 mm 10,4 km/h (2 Bft) W-NW 292 0 min 9,6 C 13,7 km/h (3 Bft)
30.05.2016 12:48 17,2 C 19,8 C 61 % 1010,2 hPa 0,0 mm 9,5 km/h (2 Bft) W-SW 247 0 min 9,6 C 6,9 km/h (2 Bft)
30.05.2016 12:50 17,2 C 19,8 C 61 % 1010,2 hPa 0,0 mm 9,5 km/h (2 Bft) W-SW 247 0 min 9,6 C 6,9 km/h (2 Bft)
30.05.2016 12:55 17,2 C 19,6 C 61 % 1010,2 hPa 0,0 mm 9,2 km/h (2 Bft) SW 225 0 min 9,6 C 17,3 km/h (3 Bft)
30.05.2016 13:00 17,5 C 20,2 C 61 % 1010,2 hPa 0,0 mm 8,6 km/h (2 Bft) S-SW 202 0 min 9,9 C 14,6 km/h (3 Bft)
30.05.2016 13:05 17,9 C 20,9 C 60 % 1010,2 hPa 0,0 mm 11,6 km/h (2 Bft) NW 315 0 min 10,0 C 28,6 km/h (4 Bft)
30.05.2016 13:10 18,6 C 22,7 C 60 % 1010,0 hPa 0,0 mm 13,7 km/h (3 Bft) W 270 5 min 10,7 C 19,7 km/h (3 Bft)
30.05.2016 13:15 18,5 C 22,7 C 59 % 1010,0 hPa 0,0 mm 14,3 km/h (3 Bft) W 270 5 min 10,3 C 25,3 km/h (4 Bft)
30.05.2016 13:20 18,2 C 22,4 C 59 % 1010,0 hPa 0,0 mm 12,5 km/h (3 Bft) W-NW 292 5 min 10,1 C 17,9 km/h (3 Bft)
30.05.2016 13:25 17,9 C 21,6 C 58 % 1010,0 hPa 0,0 mm 14,0 km/h (3 Bft) W-SW 247 5 min 9,5 C 20,9 km/h (4 Bft)
30.05.2016 13:30 17,7 C 20,6 C 58 % 1009,8 hPa 0,0 mm 14,9 km/h (3 Bft) W-NW 292 0 min 9,3 C 20,6 km/h (4 Bft)
30.05.2016 13:35 17,7 C 20,4 C 58 % 1009,8 hPa 0,0 mm 13,7 km/h (3 Bft) SW 225 0 min 9,3 C 15,8 km/h (3 Bft)
30.05.2016 13:40 17,9 C 20,6 C 58 % 1009,8 hPa 0,0 mm 15,5 km/h (3 Bft) W 270 0 min 9,5 C 16,4 km/h (3 Bft)
30.05.2016 13:45 17,9 C 20,8 C 58 % 1009,8 hPa 0,0 mm 16,1 km/h (3 Bft) S 180 0 min 9,5 C 21,2 km/h (4 Bft)
30.05.2016 13:50 18,1 C 21,0 C 58 % 1009,4 hPa 0,0 mm 11,6 km/h (2 Bft) W 270 0 min 9,7 C 18,8 km/h (3 Bft)
30.05.2016 13:55 18,1 C 21,7 C 56 % 1009,4 hPa 0,0 mm 14,6 km/h (3 Bft) W 270 5 min 9,2 C 11,9 km/h (2 Bft)
30.05.2016 14:00 18,6 C 22,5 C 57 % 1009,4 hPa 0,0 mm 14,3 km/h (3 Bft) SW 225 5 min 9,9 C 13,1 km/h (3 Bft)
30.05.2016 14:05 18,5 C 22,6 C 57 % 1009,4 hPa 0,0 mm 11,9 km/h (2 Bft) W 270 5 min 9,8 C 13,4 km/h (3 Bft)
30.05.2016 14:10 18,1 C 21,7 C 58 % 1009,5 hPa 0,0 mm 10,4 km/h (2 Bft) SW 225 5 min 9,7 C 11,6 km/h (2 Bft)
30.05.2016 14:15 17,9 C 21,0 C 57 % 1009,5 hPa 0,0 mm 8,9 km/h (2 Bft) N-NW 337 5 min 9,3 C 0,0 km/h (0 Bft)
30.05.2016 14:20 17,8 C 20,4 C 58 % 1009,5 hPa 0,0 mm 8,0 km/h (2 Bft) W-SW 247 0 min 9,4 C 21,5 km/h (4 Bft)
30.05.2016 14:25 17,7 C 20,2 C 59 % 1009,5 hPa 0,0 mm 7,7 km/h (2 Bft) W 270 0 min 9,6 C 14,6 km/h (3 Bft)
30.05.2016 14:30 17,4 C 19,8 C 58 % 1009,7 hPa 0,0 mm 8,9 km/h (2 Bft) W-NW 292 0 min 9,1 C 10,1 km/h (2 Bft)
30.05.2016 14:35 17,4 C 19,6 C 59 % 1009,7 hPa 0,0 mm 8,3 km/h (2 Bft) NO 45 0 min 9,3 C 17,3 km/h (3 Bft)
30.05.2016 14:40 17,4 C 19,5 C 58 % 1009,7 hPa 0,0 mm 8,9 km/h (2 Bft) SO 135 0 min 9,1 C 20,3 km/h (4 Bft)
30.05.2016 14:45 17,3 C 19,4 C 58 % 1009,7 hPa 0,0 mm 8,3 km/h (2 Bft) W 270 0 min 9,0 C 8,9 km/h (2 Bft)
30.05.2016 14:50 17,2 C 18,9 C 59 % 1009,7 hPa 0,0 mm 6,0 km/h (2 Bft) N-NO 22 0 min 9,1 C 3,0 km/h (1 Bft)
30.05.2016 14:55 17,1 C 18,5 C 59 % 1009,7 hPa 0,0 mm 5,4 km/h (1 Bft) S 180 0 min 9,0 C 3,6 km/h (1 Bft)
30.05.2016 15:00 16,9 C 18,1 C 59 % 1009,7 hPa 0,0 mm 6,0 km/h (2 Bft) NW 315 0 min 8,8 C 17,6 km/h (3 Bft)
30.05.2016 15:05 16,7 C 17,9 C 59 % 1009,7 hPa 0,0 mm 8,0 km/h (2 Bft) W-NW 292 0 min 8,6 C 11,3 km/h (2 Bft)
30.05.2016 15:10 16,6 C 17,6 C 60 % 1009,9 hPa 0,0 mm 8,3 km/h (2 Bft) W 270 0 min 8,8 C 4,5 km/h (1 Bft)
30.05.2016 15:15 16,6 C 17,6 C 60 % 1009,9 hPa 0,0 mm 5,1 km/h (1 Bft) N-NO 22 0 min 8,8 C 0,0 km/h (0 Bft)
30.05.2016 15:20 16,6 C 17,6 C 60 % 1009,9 hPa 0,0 mm 3,6 km/h (1 Bft) N-NW 337 0 min 8,8 C 0,0 km/h (0 Bft)
30.05.2016 15:25 16,6 C 17,5 C 61 % 1009,9 hPa 0,0 mm 3,0 km/h (1 Bft) S-SW 202 0 min 9,0 C 0,0 km/h (0 Bft)
30.05.2016 15:30 16,6 C 17,4 C 63 % 1009,9 hPa 0,0 mm 1,2 km/h (1 Bft) N-NO 22 0 min 9,5 C 0,0 km/h (0 Bft)
30.05.2016 15:35 16,6 C 16,9 C 63 % 1009,9 hPa 0,0 mm 1,8 km/h (1 Bft) O 90 0 min 9,5 C 8,6 km/h (2 Bft)
30.05.2016 15:40 16,2 C 16,1 C 65 % 1009,9 hPa 0,0 mm 1,5 km/h (1 Bft) O-SO 112 0 min 9,6 C 0,0 km/h (0 Bft)
30.05.2016 15:45 15,4 C 15,4 C 68 % 1009,9 hPa 0,7 mm 0,3 km/h (0 Bft) O-NO 67 0 min 9,5 C 0,0 km/h (0 Bft)
30.05.2016 15:48 14,8 C 14,7 C 70 % 1010,1 hPa 0,0 mm 0,0 km/h (0 Bft) S-SO 157 0 min 9,4 C 0,0 km/h (0 Bft)
30.05.2016 15:51 14,8 C 14,7 C 70 % 1010,1 hPa 0,0 mm 0,0 km/h (0 Bft) S-SO 157 0 min 9,4 C 0,0 km/h (0 Bft)
30.05.2016 15:55 14,8 C 14,8 C 72 % 1010,1 hPa 0,0 mm 0,0 km/h (0 Bft) O-NO 67 0 min 9,8 C 0,0 km/h (0 Bft)
30.05.2016 16:00 14,7 C 14,8 C 73 % 1010,1 hPa 0,0 mm 0,0 km/h (0 Bft) O-SO 112 0 min 9,9 C 0,0 km/h (0 Bft)
30.05.2016 16:05 14,7 C 14,6 C 75 % 1010,1 hPa 0,0 mm 0,6 km/h (0 Bft) N-NO 22 0 min 10,3 C 4,8 km/h (1 Bft)
30.05.2016 16:10 14,7 C 14,7 C 76 % 1009,9 hPa 0,0 mm 1,2 km/h (1 Bft) N-NO 22 0 min 10,5 C 0,0 km/h (0 Bft)
30.05.2016 16:15 14,6 C 14,7 C 76 % 1009,9 hPa 0,0 mm 0,9 km/h (0 Bft) O-NO 67 0 min 10,4 C 0,0 km/h (0 Bft)
30.05.2016 16:20 14,6 C 14,6 C 76 % 1009,9 hPa 0,0 mm 0,0 km/h (0 Bft) N-NO 22 0 min 10,4 C 0,0 km/h (0 Bft)
30.05.2016 16:25 14,6 C 14,5 C 77 % 1009,9 hPa 0,0 mm 0,3 km/h (0 Bft) N-NO 22 0 min 10,6 C 0,0 km/h (0 Bft)
30.05.2016 16:30 14,5 C 14,3 C 77 % 1009,8 hPa 0,0 mm 0,3 km/h (0 Bft) O-NO 67 0 min 10,5 C 0,0 km/h (0 Bft)
30.05.2016 16:35 14,3 C 14,2 C 78 % 1009,8 hPa 0,0 mm 0,0 km/h (0 Bft) S-SW 202 0 min 10,5 C 0,0 km/h (0 Bft)
30.05.2016 16:40 14,1 C 14,0 C 78 % 1009,8 hPa 0,0 mm 0,0 km/h (0 Bft) NW 315 0 min 10,3 C 0,0 km/h (0 Bft)
30.05.2016 16:45 13,9 C 13,8 C 78 % 1009,8 hPa 0,0 mm 0,0 km/h (0 Bft) O-NO 67 0 min 10,1 C 0,0 km/h (0 Bft)
30.05.2016 16:50 13,7 C 13,6 C 79 % 1009,9 hPa 0,7 mm 0,9 km/h (0 Bft) SO 135 0 min 10,1 C 0,0 km/h (0 Bft)
30.05.2016 16:55 13,7 C 13,5 C 79 % 1009,9 hPa 0,0 mm 0,9 km/h (0 Bft) O-SO 112 0 min 10,1 C 0,0 km/h (0 Bft)
30.05.2016 17:00 13,4 C 13,2 C 79 % 1009,9 hPa 0,0 mm 0,0 km/h (0 Bft) O 90 0 min 9,8 C 0,0 km/h (0 Bft)
30.05.2016 17:05 13,2 C 13,1 C 79 % 1009,9 hPa 0,0 mm 0,0 km/h (0 Bft) W-SW 247 0 min 9,6 C 0,0 km/h (0 Bft)
30.05.2016 17:10 13,2 C 13,0 C 80 % 1010,4 hPa 0,0 mm 0,6 km/h (0 Bft) SW 225 0 min 9,8 C 3,3 km/h (1 Bft)
30.05.2016 17:15 13,1 C 12,9 C 80 % 1010,4 hPa 0,7 mm 0,6 km/h (0 Bft) SO 135 0 min 9,7 C 0,0 km/h (0 Bft)
30.05.2016 17:20 12,8 C 12,7 C 81 % 1010,4 hPa 0,0 mm 0,3 km/h (0 Bft) SO 135 0 min 9,6 C 0,0 km/h (0 Bft)
30.05.2016 17:25 12,7 C 12,7 C 81 % 1010,4 hPa 0,7 mm 0,0 km/h (0 Bft) SW 225 0 min 9,5 C 0,0 km/h (0 Bft)
30.05.2016 17:30 12,6 C 12,6 C 81 % 1010,4 hPa 0,0 mm 0,0 km/h (0 Bft) NW 315 0 min 9,4 C 0,0 km/h (0 Bft)
30.05.2016 17:35 12,6 C 12,5 C 81 % 1010,4 hPa 0,0 mm 0,0 km/h (0 Bft) S-SO 157 0 min 9,4 C 0,0 km/h (0 Bft)
30.05.2016 17:40 12,6 C 12,5 C 82 % 1010,4 hPa 0,0 mm 0,0 km/h (0 Bft) SO 135 0 min 9,6 C 0,0 km/h (0 Bft)
30.05.2016 17:45 12,6 C 12,5 C 82 % 1010,4 hPa 0,0 mm 0,0 km/h (0 Bft) SW 225 0 min 9,6 C 0,0 km/h (0 Bft)
30.05.2016 17:50 12,5 C 12,4 C 82 % 1010,6 hPa 0,7 mm 0,0 km/h (0 Bft) NW 315 0 min 9,5 C 0,0 km/h (0 Bft)
30.05.2016 17:55 12,4 C 12,3 C 82 % 1010,6 hPa 0,0 mm 0,0 km/h (0 Bft) W 270 0 min 9,4 C 0,0 km/h (0 Bft)
30.05.2016 18:00 12,3 C 12,2 C 82 % 1010,6 hPa 0,0 mm 0,3 km/h (0 Bft) S 180 0 min 9,3 C 0,0 km/h (0 Bft)
30.05.2016 18:05 12,2 C 12,1 C 82 % 1010,6 hPa 0,0 mm 0,3 km/h (0 Bft) SW 225 0 min 9,2 C 0,0 km/h (0 Bft)
30.05.2016 18:10 12,1 C 11,9 C 83 % 1010,9 hPa 0,7 mm 0,0 km/h (0 Bft) SO 135 0 min 9,3 C 0,0 km/h (0 Bft)
30.05.2016 18:15 12,1 C 11,9 C 83 % 1010,9 hPa 0,0 mm 0,0 km/h (0 Bft) S-SO 157 0 min 9,3 C 0,0 km/h (0 Bft)
30.05.2016 18:20 12,0 C 11,9 C 83 % 1010,9 hPa 0,0 mm 0,0 km/h (0 Bft) O-NO 67 0 min 9,2 C 0,0 km/h (0 Bft)
30.05.2016 18:25 12,0 C 11,9 C 83 % 1010,9 hPa 0,7 mm 0,0 km/h (0 Bft) SW 225 0 min 9,2 C 0,0 km/h (0 Bft)
30.05.2016 18:30 11,9 C 11,8 C 83 % 1010,6 hPa 0,0 mm 0,0 km/h (0 Bft) O-SO 112 0 min 9,1 C 0,0 km/h (0 Bft)
30.05.2016 18:35 11,9 C 11,8 C 83 % 1010,6 hPa 0,0 mm 0,0 km/h (0 Bft) O-NO 67 0 min 9,1 C 0,0 km/h (0 Bft)
30.05.2016 18:40 11,7 C 11,8 C 83 % 1010,6 hPa 0,0 mm 0,0 km/h (0 Bft) O-NO 67 0 min 8,9 C 0,0 km/h (0 Bft)
30.05.2016 18:45 11,6 C 11,7 C 84 % 1010,6 hPa 0,0 mm 0,0 km/h (0 Bft) S 180 0 min 9,0 C 0,0 km/h (0 Bft)
30.05.2016 18:50 11,6 C 11,6 C 84 % 1010,8 hPa 0,0 mm 0,0 km/h (0 Bft) N-NO 22 0 min 9,0 C 0,0 km/h (0 Bft)
30.05.2016 18:52 11,6 C 11,6 C 84 % 1010,8 hPa 0,0 mm 0,0 km/h (0 Bft) N-NO 22 0 min 9,0 C 0,0 km/h (0 Bft)
30.05.2016 18:55 11,6 C 11,6 C 84 % 1010,8 hPa 0,7 mm 0,0 km/h (0 Bft) O-SO 112 0 min 9,0 C 0,0 km/h (0 Bft)
30.05.2016 19:00 11,7 C 11,7 C 84 % 1010,8 hPa 0,0 mm 0,0 km/h (0 Bft) NO 45 0 min 9,1 C 0,0 km/h (0 Bft)
30.05.2016 19:05 11,7 C 11,7 C 84 % 1010,8 hPa 0,0 mm 0,0 km/h (0 Bft) S 180 0 min 9,1 C 0,0 km/h (0 Bft)
30.05.2016 19:10 11,6 C 11,6 C 84 % 1010,8 hPa 0,0 mm 0,0 km/h (0 Bft) N-NO 22 0 min 9,0 C 0,0 km/h (0 Bft)
30.05.2016 19:15 11,6 C 11,6 C 84 % 1010,8 hPa 0,0 mm 0,0 km/h (0 Bft) N-NW 337 0 min 9,0 C 0,0 km/h (0 Bft)
30.05.2016 19:20 11,5 C 11,5 C 84 % 1010,8 hPa 0,0 mm 0,0 km/h (0 Bft) O-NO 67 0 min 8,9 C 0,0 km/h (0 Bft)
30.05.2016 19:25 11,5 C 11,5 C 84 % 1010,8 hPa 0,7 mm 0,0 km/h (0 Bft) O-NO 67 0 min 8,9 C 0,0 km/h (0 Bft)
30.05.2016 19:30 11,5 C 11,5 C 84 % 1010,8 hPa 0,0 mm 0,0 km/h (0 Bft) O-NO 67 0 min 8,9 C 0,0 km/h (0 Bft)
30.05.2016 19:35 11,5 C 11,5 C 85 % 1010,8 hPa 0,0 mm 0,0 km/h (0 Bft) NW 315 0 min 9,1 C 0,0 km/h (0 Bft)
30.05.2016 19:40 11,4 C 11,4 C 85 % 1010,8 hPa 0,0 mm 0,0 km/h (0 Bft) NW 315 0 min 9,0 C 0,0 km/h (0 Bft)
30.05.2016 19:45 11,4 C 11,4 C 85 % 1010,8 hPa 0,0 mm 0,0 km/h (0 Bft) N-NO 22 0 min 9,0 C 0,0 km/h (0 Bft)
30.05.2016 19:50 11,4 C 11,4 C 85 % 1010,9 hPa 0,0 mm 0,0 km/h (0 Bft) NO 45 0 min 9,0 C 0,0 km/h (0 Bft)
30.05.2016 19:55 11,4 C 11,3 C 85 % 1010,9 hPa 0,0 mm 0,0 km/h (0 Bft) N-NW 337 0 min 9,0 C 0,0 km/h (0 Bft)
30.05.2016 20:00 11,3 C 11,3 C 85 % 1010,9 hPa 0,0 mm 0,0 km/h (0 Bft) O-NO 67 0 min 8,9 C 0,0 km/h (0 Bft)
30.05.2016 20:05 11,3 C 11,3 C 85 % 1010,9 hPa 0,0 mm 0,0 km/h (0 Bft) S 180 0 min 8,9 C 0,0 km/h (0 Bft)
30.05.2016 20:10 11,2 C 11,3 C 85 % 1011,1 hPa 0,0 mm 0,0 km/h (0 Bft) N-NO 22 0 min 8,8 C 0,0 km/h (0 Bft)
30.05.2016 20:15 11,2 C 11,2 C 85 % 1011,1 hPa 0,0 mm 0,0 km/h (0 Bft) S 180 0 min 8,8 C 0,0 km/h (0 Bft)
30.05.2016 20:20 11,2 C 11,2 C 85 % 1011,1 hPa 0,0 mm 0,0 km/h (0 Bft) N-NO 22 0 min 8,8 C 0,0 km/h (0 Bft)
30.05.2016 20:25 11,1 C 11,1 C 85 % 1011,1 hPa 0,0 mm 0,0 km/h (0 Bft) O-NO 67 0 min 8,7 C 0,0 km/h (0 Bft)
30.05.2016 20:30 11,1 C 11,1 C 85 % 1011,1 hPa 0,0 mm 0,0 km/h (0 Bft) NO 45 0 min 8,7 C 0,0 km/h (0 Bft)
30.05.2016 20:35 11,1 C 11,1 C 85 % 1011,1 hPa 0,0 mm 0,0 km/h (0 Bft) N-NO 22 0 min 8,7 C 0,0 km/h (0 Bft)
30.05.2016 20:40 11,0 C 11,0 C 85 % 1011,1 hPa 0,0 mm 0,0 km/h (0 Bft) SW 225 0 min 8,6 C 0,0 km/h (0 Bft)
30.05.2016 20:45 11,0 C 11,0 C 85 % 1011,1 hPa 0,0 mm 0,0 km/h (0 Bft) S 180 0 min 8,6 C 0,0 km/h (0 Bft)
30.05.2016 20:50 11,0 C 11,0 C 85 % 1011,1 hPa 0,0 mm 0,0 km/h (0 Bft) S-SO 157 0 min 8,6 C 0,0 km/h (0 Bft)
30.05.2016 20:55 11,0 C 11,1 C 85 % 1011,1 hPa 0,0 mm 0,0 km/h (0 Bft) O 90 0 min 8,6 C 0,0 km/h (0 Bft)
30.05.2016 21:00 11,0 C 11,0 C 85 % 1011,1 hPa 0,0 mm 0,0 km/h (0 Bft) O-SO 112 0 min 8,6 C 0,0 km/h (0 Bft)
30.05.2016 21:05 10,9 C 10,8 C 86 % 1011,1 hPa 0,0 mm 0,0 km/h (0 Bft) SO 135 0 min 8,7 C 0,0 km/h (0 Bft)
30.05.2016 21:10 10,8 C 10,8 C 86 % 1011,2 hPa 0,0 mm 0,0 km/h (0 Bft) S 180 0 min 8,6 C 0,0 km/h (0 Bft)
30.05.2016 21:15 10,8 C 10,7 C 86 % 1011,2 hPa 0,0 mm 0,0 km/h (0 Bft) NW 315 0 min 8,6 C 0,0 km/h (0 Bft)
30.05.2016 21:20 10,8 C 10,6 C 86 % 1011,2 hPa 0,0 mm 0,0 km/h (0 Bft) NW 315 0 min 8,6 C 0,0 km/h (0 Bft)
30.05.2016 21:25 10,7 C 10,6 C 86 % 1011,2 hPa 0,0 mm 0,0 km/h (0 Bft) W-SW 247 0 min 8,5 C 0,0 km/h (0 Bft)
30.05.2016 21:30 10,7 C 10,5 C 86 % 1011,2 hPa 0,0 mm 0,0 km/h (0 Bft) N-NO 22 0 min 8,5 C 0,0 km/h (0 Bft)
30.05.2016 21:35 10,7 C 10,5 C 86 % 1011,2 hPa 0,0 mm 0,0 km/h (0 Bft) NO 45 0 min 8,5 C 0,0 km/h (0 Bft)
30.05.2016 21:40 10,6 C 10,5 C 86 % 1011,2 hPa 0,0 mm 0,0 km/h (0 Bft) O-SO 112 0 min 8,4 C 0,0 km/h (0 Bft)
30.05.2016 21:45 10,6 C 10,4 C 86 % 1011,2 hPa 0,0 mm 0,0 km/h (0 Bft) O-NO 67 0 min 8,4 C 0,0 km/h (0 Bft)
30.05.2016 21:50 10,6 C 10,4 C 86 % 1011,6 hPa 0,0 mm 0,0 km/h (0 Bft) NW 315 0 min 8,4 C 0,0 km/h (0 Bft)
30.05.2016 21:53 10,6 C 10,4 C 86 % 1011,6 hPa 0,0 mm 0,0 km/h (0 Bft) NW 315 0 min 8,4 C 0,0 km/h (0 Bft)
30.05.2016 21:55 10,5 C 10,4 C 86 % 1011,6 hPa 0,0 mm 0,0 km/h (0 Bft) N 360 0 min 8,3 C 0,0 km/h (0 Bft)
30.05.2016 22:00 10,5 C 10,4 C 86 % 1011,6 hPa 0,0 mm 0,0 km/h (0 Bft) N-NW 337 0 min 8,3 C 0,0 km/h (0 Bft)
30.05.2016 22:05 10,5 C 10,4 C 86 % 1011,6 hPa 0,0 mm 0,0 km/h (0 Bft) O 90 0 min 8,3 C 0,0 km/h (0 Bft)
30.05.2016 22:10 10,5 C 10,4 C 86 % 1011,5 hPa 0,0 mm 0,0 km/h (0 Bft) O-SO 112 0 min 8,3 C 0,0 km/h (0 Bft)
30.05.2016 22:15 10,5 C 10,4 C 86 % 1011,5 hPa 0,0 mm 0,0 km/h (0 Bft) O 90 0 min 8,3 C 0,0 km/h (0 Bft)
30.05.2016 22:20 10,5 C 10,5 C 86 % 1011,5 hPa 0,0 mm 0,0 km/h (0 Bft) O 90 0 min 8,3 C 0,0 km/h (0 Bft)
30.05.2016 22:25 10,5 C 10,5 C 86 % 1011,5 hPa 0,0 mm 0,0 km/h (0 Bft) N-NO 22 0 min 8,3 C 0,0 km/h (0 Bft)
30.05.2016 22:30 10,5 C 10,5 C 86 % 1011,4 hPa 0,0 mm 0,0 km/h (0 Bft) N-NO 22 0 min 8,3 C 0,0 km/h (0 Bft)
30.05.2016 22:35 10,6 C 10,5 C 86 % 1011,4 hPa 0,0 mm 0,0 km/h (0 Bft) N-NW 337 0 min 8,4 C 0,0 km/h (0 Bft)
30.05.2016 22:40 10,5 C 10,5 C 86 % 1011,4 hPa 0,0 mm 0,0 km/h (0 Bft) O-NO 67 0 min 8,3 C 0,0 km/h (0 Bft)
30.05.2016 22:45 10,6 C 10,5 C 86 % 1011,4 hPa 0,0 mm 0,0 km/h (0 Bft) NW 315 0 min 8,4 C 0,0 km/h (0 Bft)
30.05.2016 22:50 10,5 C 10,5 C 86 % 1011,4 hPa 0,0 mm 0,0 km/h (0 Bft) N 360 0 min 8,3 C 0,0 km/h (0 Bft)
30.05.2016 22:55 10,5 C 10,5 C 86 % 1011,4 hPa 0,0 mm 0,0 km/h (0 Bft) N 360 0 min 8,3 C 0,0 km/h (0 Bft)
30.05.2016 23:00 10,5 C 10,4 C 86 % 1011,4 hPa 0,0 mm 0,0 km/h (0 Bft) W-NW 292 0 min 8,3 C 0,0 km/h (0 Bft)
30.05.2016 23:05 10,5 C 10,4 C 86 % 1011,4 hPa 0,0 mm 0,0 km/h (0 Bft) N-NO 22 0 min 8,3 C 0,0 km/h (0 Bft)
30.05.2016 23:10 10,5 C 10,4 C 86 % 1011,5 hPa 0,0 mm 0,0 km/h (0 Bft) W-SW 247 0 min 8,3 C 0,0 km/h (0 Bft)
30.05.2016 23:15 10,5 C 10,4 C 86 % 1011,5 hPa 0,0 mm 0,0 km/h (0 Bft) NW 315 0 min 8,3 C 0,0 km/h (0 Bft)
30.05.2016 23:20 10,5 C 10,4 C 86 % 1011,5 hPa 0,0 mm 0,0 km/h (0 Bft) N-NO 22 0 min 8,3 C 0,0 km/h (0 Bft)
30.05.2016 23:25 10,5 C 10,4 C 86 % 1011,5 hPa 0,0 mm 0,0 km/h (0 Bft) NO 45 0 min 8,3 C 0,0 km/h (0 Bft)
30.05.2016 23:30 10,5 C 10,3 C 86 % 1011,6 hPa 0,0 mm 0,0 km/h (0 Bft) N 360 0 min 8,3 C 0,0 km/h (0 Bft)
30.05.2016 23:35 10,5 C 10,3 C 86 % 1011,6 hPa 0,0 mm 0,0 km/h (0 Bft) N-NW 337 0 min 8,3 C 0,0 km/h (0 Bft)
30.05.2016 23:40 10,5 C 10,3 C 86 % 1011,6 hPa 0,0 mm 0,0 km/h (0 Bft) O-SO 112 0 min 8,3 C 0,0 km/h (0 Bft)
30.05.2016 23:45 10,5 C 10,3 C 86 % 1011,6 hPa 0,0 mm 0,0 km/h (0 Bft) W 270 0 min 8,3 C 0,0 km/h (0 Bft)
30.05.2016 23:50 10,5 C 10,4 C 86 % 1011,4 hPa 0,0 mm 0,0 km/h (0 Bft) O-NO 67 0 min 8,3 C 0,0 km/h (0 Bft)
30.05.2016 23:55 10,5 C 10,3 C 86 % 1011,4 hPa 0,0 mm 0,0 km/h (0 Bft) N-NO 22 0 min 8,3 C 0,0 km/h (0 Bft)
_ Min-Zeit 03:38 03:38 13:55 04:23 - 23:55 - - - 03:38 23:55
Minimum _ 9,4 C 9,1 C 56 % 1007,4 hPa - 0,0 km/h (0 Bft) - - - 7,2 C 0,0 km/h (0 Bft)
_ Max-Zeit 12:10 11:45 07:23 23:45 19:25 13:45 - - 14:15 11:40 12:20
Maximum _ 18,8 C 24,4 C 87 % 1011,6 hPa 0,7 mm 16,1 km/h
S (3 Bft)
- - 5 min 12,8 C 39,0 km/h
S (6 Bft)
Durchschnitt _ 12,9 C 13,9 C 79 % 1009,4 hPa #6,9 mm 2,8 km/h (1 Bft) W - #4:06 h 9,3 C 4,1 km/h (1 Bft)